Вернуться в каталог

FENGYUN 1C DEB

АктивенPO
NORAD 33601·DEBRIS·🇨🇳 China

Запущен May 10, 1999 с Taiyuan Satellite Launch Center

Loading…

Ближайшие Пролёты (ближайшие 24 часа)

TLE

СвежийSource: Space-Track

Эпоха: Sep 13, 2026, 07:46 UTC

1 33601U 99025DCJ 26256.32417108  .00001224  00000-0  65110-3 0  9990
2 33601  98.3426  36.7038 0156554  77.9439 283.9228 14.08987759945458

Отслеживайте FENGYUN 1C DEB в реальном времени с AllMySat

Download on the App Store